Location: Arrington
(35.8681°N, 86.7092°W)
Time: 15:37:21
(UTC+00:00)

ATLAS 2AS CENTAUR R/B - Pass Details

Date: 28 February 2020
Orbit: 929 x 1283 km, 63.7° (Epoch: 27 March)

Event Time Altitude Azimuth Distance (km) Brightness Sun altitude
Rises 01:05:34 0° 179° (S) 4,118 5.7 -18.2°
Reaches altitude 10° 01:08:34 10° 170° (S) 3,196 5.0 -18.8°
Maximum altitude 01:15:20 33° 110° (ESE) 1,987 3.6 -20.1°
Enters shadow 01:16:35 32° 92° (E) 2,048 3.6 -20.4°
